Torna al catalogo

SL-12 R/B(2)

AttivoGEO
NORAD 17872·ROCKET BODY·🇷🇺 Russia

Lanciato Sep 11, 1976 da Baikonur Cosmodrome

Loading…

TLE

AggiornatoSource: Space-Track

Epoca: Sep 14, 2026, 20:54 UTC

1 17872U 76092F   26257.87104051  .00000082  00000-0  00000-0 0  9997
2 17872   3.2362 268.6327 0015718 205.4024 248.0171  1.00250760119821

Traccia SL-12 R/B(2) in tempo reale con AllMySat

Download on the App Store